Simultaneous Nadir Overpasses (SNOs) Predictions

Prediction of SNOs between LANDSAT-8 and METOP-B Satellite Orbit:

Table of predicted SNOs for the next 14.0 days since TLE Epoch: 11/22/2013
Index Date (LANDSAT-8) Time (LANDSAT-8) Lat,Lon (LANDSAT-8) SZA (LANDSAT-8 ) Date (METOP-B) Time (METOP-B) Lat,Lon (METOP-B) SZA (METOP-B ) Distance(km) Time Diff (sec)
1 11/25/2013 04:39:55 81.09, 149.50 104.08 11/25/2013 04:39:53 81.09, 149.46 104.08 0.73 2
2 11/25/2013 05:29:21 -81.11, -42.52 75.87 11/25/2013 05:30:32 -81.12, -42.36 75.81 2.88 71
3 11/27/2013 23:24:41 -81.06, 47.90 75.50 11/27/2013 23:23:40 -81.06, 47.78 75.53 2.04 61
4 11/28/2013 00:14:05 81.11,-143.77 104.62 11/28/2013 00:14:17 81.10,-143.69 104.63 1.40 12
5 11/30/2013 18:58:51 -81.07, 114.45 75.04 11/30/2013 18:58:04 -81.08, 114.60 75.04 2.91 47
6 11/30/2013 19:48:15 81.11, -77.25 105.07 11/30/2013 19:48:42 81.10, -77.29 105.07 0.98 27
7 12/03/2013 14:32:59 -81.08,-178.86 74.62 12/03/2013 14:32:28 -81.07,-179.03 74.65 3.04 31
8 12/03/2013 15:22:24 81.10, -10.95 105.43 12/03/2013 15:23:06 81.10, -10.97 105.45 0.44 42
9 12/06/2013 10:07:08 -81.08,-112.38 74.29 12/06/2013 10:06:52 -81.08,-112.38 74.29 0.16 16




NCC Satellite Simultaneous Nadir Overpasses (SNOs) Prediction Service
